Location: Chuathbaluk
(61.5726°N, 159.2454°W)
Time: 14:34:09
(UTC+00:00)

DELFI C3 - Pass Details

Date: 24 January 2021
Orbit: 531 x 550 km, 97.4° (Epoch: 04 March)

Event Time Altitude Azimuth Distance (km) Brightness Sun altitude
Exits shadow 07:19:21 17° 292° (WNW) 1,437 ? -34.2°
Drops below altitude 10° 07:21:13 10° 319° (NW) 1,842 ? -34.4°
Sets 07:23:54 0° 338° (NNW) 2,744 ? -34.7°
